Weather reports worldwide

Advertisment
Sennybridge, United Kingdom (3507): temperature & dewpoint: 16.02.2019 01:00:00 - 22.02.2019 01:00:00 (GMT)Sennybridge, United Kingdom (3507): temperature -20cm & temperature -100cm: 16.02.2019 01:00:00 - 22.02.2019 01:00:00 (GMT)Sennybridge, United Kingdom (3507): wind speed & gusts: 16.02.2019 01:00:00 - 22.02.2019 01:00:00 (GMT)Sennybridge, United Kingdom (3507): wind direction: 16.02.2019 01:00:00 - 22.02.2019 01:00:00 (GMT)Sennybridge, United Kingdom (3507): reduced air pressure: 16.02.2019 01:00:00 - 22.02.2019 01:00:00 (GMT)Sennybridge, United Kingdom (3507): visibility: 16.02.2019 01:00:00 - 22.02.2019 01:00:00 (GMT)Sennybridge, United Kingdom (3507): precipitation: 16.02.2019 01:00:00 - 22.02.2019 01:00:00 (GMT)
Date & Time tt [°C] td [°C] tt -20cm [°C] tt -100cm [°C] ff [km/h] ff [kn] fx [km/h] fx [kn] dd ppp [hPa] vv [km] rr [mm]
22.02.2019 01:00:00 6,6 4,5 - - 13 7 - - S 1031,3 19 0,0
22.02.2019 00:00:00 7,8 4,6 - - 8 4 - - SSW 1030,7 22 0,0
21.02.2019 23:00:00 6,5 4,9 - - 8 4 - - SSW 1030,2 13 0,0
21.02.2019 22:00:00 7,1 5,0 - - 9 5 - - SSE 1029,8 16 0,0
21.02.2019 21:00:00 8,5 4,7 - - 13 7 - - S 1029,0 29 0,0
21.02.2019 20:00:00 10,0 5,5 - - 18 10 - - S 1028,0 35 0,0
21.02.2019 19:00:00 9,7 5,5 - - 13 7 - - SSW 1027,4 40 0,0
21.02.2019 18:00:00 8,0 4,6 - - 4 2 - - SE 1027,0 29 0,0
21.02.2019 17:00:00 10,6 6,2 - - 13 7 - - SSW 1026,4 30 0,0
21.02.2019 16:00:00 11,3 6,7 - - 24 13 - - SW 1025,9 27 0,0
21.02.2019 15:00:00 11,9 7,0 - - 21 11 - - SW 1025,5 26 0,0
21.02.2019 14:00:00 10,7 7,1 - - 24 13 - - SW 1025,6 23 0,0
21.02.2019 13:00:00 10,0 7,7 - - 24 13 - - SW 1025,8 24 0,0
21.02.2019 12:00:00 10,0 7,9 - - 24 13 - - SW 1025,5 17 0,0
21.02.2019 11:00:00 9,5 7,8 - - 28 15 - - SW 1025,2 12 0,0
21.02.2019 10:00:00 9,4 7,9 - - 24 13 - - SSW 1024,7 19 0,0
21.02.2019 09:00:00 8,8 7,9 7,2 7,0 26 14 - - SW 1024,2 13 0,0
21.02.2019 08:00:00 8,7 8,4 - - 26 14 - - SW 1023,6 8 0,0
21.02.2019 07:00:00 8,9 8,6 - - 29 16 - - SW 1022,7 5 0,2
21.02.2019 06:00:00 8,9 8,7 - - 24 13 - - SW 1022,2 2,8 0,2
21.02.2019 05:00:00 8,9 8,7 - - 24 13 - - SW 1021,7 4,1 0,2
21.02.2019 04:00:00 8,8 8,5 - - 26 14 - - SW 1021,0 5 0,0
21.02.2019 03:00:00 8,8 8,5 - - 22 12 - - SW 1020,8 7 0,0
21.02.2019 02:00:00 8,6 8,2 - - 24 13 - - SW 1020,3 7 0,2
21.02.2019 01:00:00 8,6 8,1 - - 24 13 - - SW 1020,1 7 0,2
21.02.2019 00:00:00 8,3 7,9 - - 26 14 - - SW 1019,8 3,5 1,0
20.02.2019 23:00:00 8,3 7,7 - - 24 13 48 26 SW 1019,4 4,2 0,4
20.02.2019 22:00:00 8,3 7,5 - - 28 15 - - SW 1018,9 9 0,0
20.02.2019 21:00:00 8,2 7,5 - - 29 16 - - SW 1018,8 9 1,0
20.02.2019 20:00:00 7,9 7,4 - - 21 11 - - SSW 1018,9 3,8 0,8
20.02.2019 19:00:00 7,9 7,3 - - 18 10 - - SSW 1018,3 4,9 0,4
20.02.2019 18:00:00 7,9 7,2 - - 21 11 - - SSW 1017,7 6 0,4
20.02.2019 17:00:00 8,1 7,3 - - 16 9 - - SSW 1017,4 7 0,2
20.02.2019 16:00:00 8,1 7,3 - - 26 14 - - SW 1017,4 5 0,4
20.02.2019 15:00:00 8,8 6,7 - - 34 18 48 26 SW 1017,2 20 -
20.02.2019 14:00:00 8,9 6,9 - - 31 17 46 25 SSW 1017,2 24 -
20.02.2019 13:00:00 8,4 6,4 - - 34 18 46 25 SW 1017,3 13 0,0
20.02.2019 12:00:00 8,2 6,2 - - 29 16 48 26 SW 1017,1 16 0,0
20.02.2019 11:00:00 8,0 5,9 - - 34 18 48 26 SW 1017,0 17 0,0
20.02.2019 10:00:00 7,8 5,6 - - 29 16 46 25 SW 1016,6 20 0,0
20.02.2019 09:00:00 7,4 5,3 7,0 6,9 31 17 48 26 SW 1016,2 20 0,0
20.02.2019 08:00:00 7,0 5,1 - - 29 16 - - SSW 1015,8 20 0,0
20.02.2019 07:00:00 6,9 5,0 - - 26 14 - - SSW 1015,5 18 0,0
20.02.2019 06:00:00 6,8 5,0 - - 31 17 50 27 SSW 1015,2 20 0,0
20.02.2019 05:00:00 6,8 5,0 - - 34 18 48 26 SW 1015,1 20 0,0
20.02.2019 04:00:00 6,7 4,9 - - 28 15 46 25 SSW 1015,1 19 0,0
20.02.2019 03:00:00 6,5 5,0 - - 34 18 46 25 SW 1015,3 22 0,0
20.02.2019 02:00:00 6,3 5,1 - - 31 17 50 27 SW 1015,9 10 0,0
20.02.2019 01:00:00 6,3 4,9 - - 31 17 48 26 SW 1015,9 18 0,0
20.02.2019 00:00:00 6,0 4,8 - - 34 18 48 26 SW 1015,8 30 0,0
19.02.2019 23:00:00 6,1 4,7 - - 34 18 52 28 SW 1015,8 24 0,0
19.02.2019 22:00:00 6,2 4,3 - - 35 19 48 26 SSW 1016,0 18 0,0
19.02.2019 21:00:00 6,1 4,3 - - 31 17 - - SSW 1016,0 16 0,0
19.02.2019 20:00:00 6,3 4,0 - - 29 16 - - SSW 1016,0 22 0,0
19.02.2019 19:00:00 6,3 4,0 - - 24 13 - - SSW 1016,0 28 0,0
19.02.2019 18:00:00 6,3 4,1 - - 26 14 - - SSW 1016,1 16 0,0
19.02.2019 17:00:00 6,6 3,7 - - 29 16 46 25 SW 1016,3 50 0,0
19.02.2019 16:00:00 6,8 4,0 - - 34 18 46 25 SW 1016,5 40 0,0
19.02.2019 15:00:00 6,9 3,9 - - 28 15 - - SW 1016,9 35 0,0
19.02.2019 14:00:00 6,5 4,3 - - 26 14 - - SW 1017,1 16 0,0
19.02.2019 13:00:00 5,5 4,0 - - 26 14 - - SW 1017,7 17 0,0
19.02.2019 12:00:00 6,5 4,1 - - - - - - - 1017,8 27 0,0
19.02.2019 11:00:00 6,2 4,2 - - 22 12 - - SW 1017,8 17 0,0
19.02.2019 10:00:00 5,5 4,3 - - 18 10 - - SW 1017,9 18 0,0
19.02.2019 09:00:00 4,8 4,3 6,9 6,7 16 9 - - SSW 1017,8 10 0,0
19.02.2019 08:00:00 4,4 3,8 - - 15 8 - - SW 1017,5 19 0,4
19.02.2019 07:00:00 4,2 3,8 - - 11 6 - - WSW 1017,4 8 0,2
19.02.2019 06:00:00 3,3 2,8 - - 9 5 - - WSW 1017,2 12 0,0
19.02.2019 05:00:00 4,0 3,8 - - 15 8 - - WSW 1017,0 0,5 0,0
19.02.2019 04:00:00 4,3 4,1 - - 15 8 - - WSW 1016,8 6 0,0
19.02.2019 03:00:00 4,6 4,3 - - 13 7 - - WSW 1016,7 4,3 0,0
19.02.2019 02:00:00 4,9 4,2 - - 11 6 - - SW 1016,9 9 0,0
19.02.2019 01:00:00 4,8 4,3 - - 9 5 - - WSW 1016,5 8 0,0
19.02.2019 00:00:00 5,3 4,5 - - 16 9 - - WSW 1016,1 10 0,0
18.02.2019 23:00:00 5,1 4,4 - - 16 9 - - WSW 1015,9 9 0,0
18.02.2019 22:00:00 5,3 4,4 - - 16 9 - - WSW 1015,8 9 0,0
18.02.2019 21:00:00 5,4 4,4 - - 22 12 - - WSW 1015,3 11 0,0
18.02.2019 20:00:00 5,3 4,4 - - 21 11 - - SW 1014,7 11 0,0
18.02.2019 19:00:00 5,1 3,9 - - 18 10 - - SW 1014,3 12 0,0
18.02.2019 18:00:00 5,5 3,8 - - 24 13 - - WSW 1013,6 11 0,0
18.02.2019 17:00:00 5,3 3,9 - - 31 17 52 28 WSW 1013,2 12 0,6
18.02.2019 16:00:00 6,6 3,0 - - 29 16 - - WSW 1012,8 9 0,0
18.02.2019 15:00:00 6,3 2,7 - - 21 11 - - WSW 1012,8 18 0,0
18.02.2019 14:00:00 6,8 3,3 - - 18 10 - - WSW 1012,8 17 0,2
18.02.2019 13:00:00 7,0 3,3 - - 22 12 - - WSW 1013,0 21 0,0
18.02.2019 12:00:00 6,7 4,7 - - 21 11 - - WSW 1013,3 14 0,0
18.02.2019 11:00:00 6,4 5,0 - - 21 11 - - SW 1013,1 14 0,0
18.02.2019 10:00:00 6,1 5,1 - - 18 10 - - WSW 1012,9 16 0,8
18.02.2019 09:00:00 6,0 5,2 6,9 6,7 21 11 - - SW 1012,5 4,7 0,4
18.02.2019 08:00:00 5,7 4,9 - - 26 14 50 27 SSW 1012,2 8 0,4
18.02.2019 07:00:00 6,6 4,8 - - 29 16 46 25 SW 1011,6 7 0,2
18.02.2019 06:00:00 6,6 4,8 - - 28 15 - - SW 1011,7 11 0,0
18.02.2019 05:00:00 6,9 4,9 - - 28 15 - - SW 1011,7 12 0,0
18.02.2019 04:00:00 7,0 5,1 - - 29 16 - - SSW 1011,8 13 0,0
18.02.2019 03:00:00 7,1 5,2 - - 26 14 - - SW 1012,0 12 0,0
18.02.2019 02:00:00 7,1 5,5 - - 24 13 - - SW 1012,4 11 0,0
18.02.2019 01:00:00 7,0 5,4 - - 26 14 - - SW 1012,6 11 0,0
18.02.2019 00:00:00 7,2 5,2 - - 24 13 - - SSW 1012,5 12 0,0
17.02.2019 23:00:00 7,5 5,4 - - 28 15 46 25 SW 1012,5 12 0,0
17.02.2019 22:00:00 7,4 5,5 - - 28 15 - - SW 1012,3 11 0,0
17.02.2019 21:00:00 7,7 5,0 - - 34 18 54 29 SSW 1011,9 13 0,0
17.02.2019 20:00:00 7,6 4,5 - - 31 17 - - SSW 1011,8 16 0,0
17.02.2019 19:00:00 6,0 3,6 - - 21 11 - - SSW 1012,3 14 0,0
17.02.2019 18:00:00 6,7 3,9 - - 22 12 - - SW 1011,9 15 0,0
17.02.2019 17:00:00 7,7 3,9 - - 28 15 - - SW 1011,3 19 0,0
17.02.2019 16:00:00 8,5 4,7 - - 35 19 54 29 SW 1011,2 19 0,0
17.02.2019 15:00:00 9,2 4,8 - - 37 20 52 28 SW 1011,2 17 0,0
17.02.2019 14:00:00 10,8 7,4 - - 29 16 50 27 SW 1010,8 16 0,0
17.02.2019 13:00:00 9,2 6,7 - - 29 16 52 28 SSW 1011,1 17 0,0
17.02.2019 12:00:00 8,5 6,9 - - 35 19 52 28 SW 1011,2 16 -
17.02.2019 11:00:00 9,0 7,7 - - 29 16 50 27 SSW 1010,5 14 0,2
17.02.2019 10:00:00 7,9 6,7 - - 24 13 - - S 1010,3 4,1 0,0
17.02.2019 09:00:00 8,2 4,8 6,7 6,7 26 14 - - S 1010,4 15 0,0
17.02.2019 08:00:00 7,1 3,6 - - 29 16 52 28 S 1010,3 16 0,0
17.02.2019 07:00:00 7,3 3,6 - - 34 18 46 25 S 1009,8 17 0,0
17.02.2019 06:00:00 7,0 3,3 - - 21 11 - - S 1010,9 17 0,0
17.02.2019 05:00:00 6,9 3,2 - - 13 7 - - S 1012,0 17 0,0
17.02.2019 04:00:00 7,9 4,1 - - 11 6 - - SSW 1012,6 20 0,0
17.02.2019 03:00:00 7,6 5,6 - - 16 9 - - S 1013,6 12 0,0
17.02.2019 02:00:00 7,6 5,9 - - 11 6 - - SSE 1014,7 15 0,0
17.02.2019 01:00:00 7,8 6,2 - - 21 11 - - SSE 1015,4 17 0,0
17.02.2019 00:00:00 8,3 6,0 - - 26 14 - - S 1016,0 26 0,0
16.02.2019 23:00:00 8,0 6,0 - - 31 17 - - S 1016,5 19 0,0
16.02.2019 22:00:00 8,5 6,0 - - 24 13 - - S 1017,2 22 0,0
16.02.2019 21:00:00 8,6 6,5 - - 21 11 - - SSW 1017,7 17 0,0
16.02.2019 20:00:00 9,0 7,2 - - 18 10 - - SSW 1018,0 17 0,0
16.02.2019 19:00:00 9,6 8,7 - - 24 13 - - SSW 1018,1 13 0,0
16.02.2019 18:00:00 10,0 8,9 - - 29 16 46 25 SSW 1017,9 21 0,0
16.02.2019 17:00:00 10,4 8,6 - - 31 17 - - SSW 1017,6 25 0,0
16.02.2019 16:00:00 9,8 9,0 - - 29 16 - - SSW 1018,1 8 0,0
16.02.2019 15:00:00 9,7 8,9 - - 22 12 - - SSW 1018,6 7 0,0
16.02.2019 14:00:00 8,8 8,2 - - 22 12 - - SW 1019,5 4,8 0,0
16.02.2019 13:00:00 9,5 7,1 - - 29 16 54 29 SW 1020,1 20 0,0
16.02.2019 12:00:00 9,4 6,0 - - 31 17 50 27 SSW 1020,7 22 0,0
16.02.2019 11:00:00 8,9 6,4 - - 31 17 46 25 SSW 1021,0 15 0,0
16.02.2019 10:00:00 8,6 7,2 - - 24 13 - - SW 1020,5 16 0,0
16.02.2019 09:00:00 7,6 6,9 6,2 6,7 22 12 - - SW 1020,8 11 0,0
16.02.2019 08:00:00 7,2 6,6 - - 24 13 - - SW 1020,6 10 0,0
16.02.2019 07:00:00 7,1 6,4 - - 24 13 - - SW 1020,1 10 0,0
16.02.2019 06:00:00 7,4 6,5 - - 26 14 - - SW 1020,0 12 0,0
16.02.2019 05:00:00 7,3 6,2 - - 29 16 - - SW 1019,9 12 0,0
16.02.2019 04:00:00 7,8 7,1 - - 28 15 - - SW 1020,0 11 0,2
16.02.2019 03:00:00 8,2 7,8 - - 29 16 48 26 SW 1020,3 3,7 0,2
16.02.2019 02:00:00 8,7 8,5 - - 28 15 - - SW 1020,2 3,1 0,2
16.02.2019 01:00:00 9,1 8,7 - - 34 18 46 25 SW 1020,2 3,9 0,0

tt = temperature
td = dewpoint
tt -20cm = temperature -20cm
tt -100cm = temperature -100cm
ff = wind speed
fx = gusts
dd = wind direction
ppp = reduced air pressure
vv = visibility
rr = precipitation

Next stations